Regional Weather Roundup
Issued by NWS

Home | Current Version | Previous Version | Graphics & Text | Print | Product List | Glossary On
Versions: 1 2 3 4 5 6 7 8 9 10 11 12 13 14 15 16 17 18 19 20 21 22 23 24 25 26 27 28 29 30 31 32 33 34 35 36 37 38 39 40 41 42 43 44 45 46 47 48 49 50
000
ASUS43 KLMK 271702
RWRKY
KENTUCKY REGIONAL WEATHER ROUNDUP
NATIONAL WEATHER SERVICE LOUISVILLE KY
100 PM EDT WED MAY 27 2015

NOTE "FAIR" INDICATES FEW OR NO CLOUDS BELOW 12,000 FEET
WITH NO SIGNIFICANT WEATHER AND/OR OBSTRUCTIONS TO VISIBILITY.

KYZ001>023-026-027-061>063-070>075-271800-
WESTERN AND SOUTH CENTRAL KENTUCKY

CITY           SKY/WX    TMP DP  RH WIND       PRES   REMARKS
PADUCAH        CLOUDY    77  63  61 S6        30.10F
HENDERSON      MOSUNNY   73  64  73 SE7       30.08F
OWENSBORO      TSTM      67  65  93 E7        30.13R FOG
HOPKINSVILLE   PTSUNNY   79  72  78 SW10      30.14S
BOWLING GREEN  PTSUNNY   82  70  66 S10G20    30.14F
GLASGOW        NOT AVBL
$$

KYZ024-025-028>034-038-045-046-053-271800-
NORTH CENTRAL KENTUCKY

CITY           SKY/WX    TMP DP  RH WIND       PRES   REMARKS
LOUISVILLE/SDF PTSUNNY   80  66  62 S15G21    30.12F
LOUISVILLE/LOU PTSUNNY   79  65  62 SW9G18    30.12F
FORT KNOX      CLOUDY    76  67  74 S8        30.13F
$$

KYZ035>037-039>044-047>052-055>060-089>105-271800-
NORTHEAST KENTUCKY

CITY           SKY/WX    TMP DP  RH WIND       PRES   REMARKS
LEXINGTON      MOSUNNY   79  66  64 SW14      30.17S
COVINGTON      PTSUNNY   78  65  63 S15G22    30.13F
FRANKFORT      PTSUNNY   79  64  60 S13       30.15S
$$

KYZ054-064>069-076>088-106>120-271800-
SOUTHEAST KENTUCKY

CITY           SKY/WX    TMP DP  RH WIND       PRES   REMARKS
JACKSON        MOSUNNY   75  65  70 VRB3      30.23S
LONDON         PTSUNNY   76  61  59 S8        30.23F
SOMERSET       NOT AVBL
MIDDLESBORO    CLOUDY    75  63  66 SE7       30.24F
MONTICELLO     PTSUNNY   79  66  64 SW7       30.24S
$$




USA.gov is the U.S. government's official web portal to all federal, state and local government web resources and services.